Location: Smithers
(54.7670°N, 127.1670°W)
Time: 01:00:31
(UTC-08:00)

Daily predictions for brighter satellites

Satellite Brightness Start Highest point End
(mag) Time Altitude Azimuth Time Altitude Azimuth Time Altitude Azimuth
SL-16 R/B 4.2 02:02:35 27° N 02:02:35 27° N 02:05:23 10° NNW
Cosmos 2278 Rocket 4.3 02:10:59 22° NE 02:10:59 22° NE 02:12:56 10° NE
Cosmos 2344 4.0 02:19:02 67° NE 02:19:02 67° NE 02:27:29 10° NE
Cosmos 1844 Rocket 4.3 03:11:23 27° N 03:11:23 27° N 03:14:36 10° NNE
ADEOS Rocket 3.7 03:03:53 10° NNE 03:10:28 52° E 03:10:28 52° E
ARIANE 5 R/B 4.3 03:06:26 10° NNE 03:08:47 28° NNE 03:08:47 28° NNE
ADEOS II 4.4 03:15:33 10° NE 03:19:12 19° E 03:21:41 14° ESE
Cosmos 2263 Rocket 4.3 03:23:45 18° NNW 03:23:59 18° NNW 03:27:46 10° NNE
Resurs 1-4 Rocket 3.1 03:36:42 10° NNE 03:40:04 40° N 03:40:04 40° N
SL-16 R/B 4.5 03:47:40 16° NW 03:47:40 16° NW 03:48:59 10° NNW
Cosmos 2219 4.4 03:38:09 10° NNW 03:43:31 39° NE 03:48:49 10° ESE
CZ-2D R/B 3.1 03:38:18 10° NNE 03:41:49 42° N 03:41:49 42° N
Cosmos 2227 Rocket 4.3 03:43:39 10° NNW 03:48:14 24° NNE 03:52:48 10° E
Cosmos 2278 Rocket 3.4 03:52:49 33° NNW 03:52:49 33° NNW 03:57:00 10° NNE
Cosmos 2369 Rocket 3.1 03:52:42 41° SE 03:53:20 42° ESE 03:58:38 10° NE
MOS 1 Rocket 4.4 03:50:06 10° NNE 03:55:25 49° E 03:56:14 45° SE
MOS 1-B 4.4 03:56:22 10° NNE 04:02:12 73° ESE 04:02:34 71° SE
Cosmos 1867 4.2 04:02:22 47° SE 04:02:31 47° SE 04:07:44 10° NE
Okean O Rocket 2.3 04:08:37 10° NNE 04:12:35 50° E 04:12:35 50° E
ERS-2 4.2 04:11:10 10° NE 04:14:18 25° E 04:14:51 24° ESE
Cosmos 2242 Rocket 4.3 04:16:30 52° NNE 04:16:30 52° NNE 04:19:59 10° NNE
Lacrosse 4 Rocket 3.3 04:17:05 23° N 04:17:05 23° N 04:19:09 10° NNE
Iridium 4 Rocket 3.7 04:11:57 10° N 04:17:18 73° NW 04:17:18 73° NW
Cosmos 2056 Rocket 4.4 04:20:23 34° SSE 04:22:03 45° ESE 04:27:01 10° NE
Cosmos 1933 4.3 04:23:31 45° ESE 04:23:41 45° E 04:27:37 10° NNE
Cosmos 1954 Rocket 4.2 04:18:26 10° NNW 04:23:45 73° ENE 04:29:05 10° SE
Lacrosse 5 rocket 2.6 04:28:24 34° E 04:28:24 34° E 04:30:34 10° E
ATLAS 5 CENTAUR R/B 3.0 04:27:41 31° SSE 04:28:59 37° ESE 04:33:50 10° ENE
COSMO-SKYMED 1 4.4 04:28:15 10° SE 04:32:05 31° ENE 04:35:56 10° N
Cosmos 972 Rocket 4.5 04:31:24 38° S 04:33:18 61° ESE 04:38:56 10° NNE
CZ-4B R/B 3.2 04:31:53 10° NNE 04:35:28 63° NE 04:35:28 63° NE
Cosmos 1943 Rocket 3.0 04:33:16 24° S 04:36:13 45° ESE 04:41:31 10° NE
CZ-4B R/B 3.5 04:31:49 10° NNE 04:37:26 69° ESE 04:40:37 27° S
Lacrosse 5 3.4 04:37:39 23° SSE 04:39:21 29° SE 04:43:41 10° ENE
Cosmos 2263 4.5 04:39:03 37° S 04:41:10 64° ESE 04:46:45 10° NE
Cosmos 2266 Rocket 3.9 04:38:39 10° NNW 04:44:41 56° W 04:45:40 50° SW
Nadezhda 2 Rocket 4.3 04:39:16 10° NNW 04:45:24 81° W 04:51:31 10° S
ARIANE 5 R/B 3.9 04:46:12 10° N 04:49:08 23° NW 04:49:08 23° NW
Cosmos 1371 Rocket 3.9 04:49:02 51° SSW 04:50:24 88° ESE 04:55:38 10° NNE
Meteor 1-14 Rocket 4.3 04:48:36 10° NNW 04:54:32 83° ENE 05:00:17 10° SSE
PSLV R/B 3.4 04:50:24 10° NNE 04:54:38 84° ESE 04:55:33 54° S
Cosmos 1908 Rocket 3.4 04:50:22 10° NNW 04:54:50 71° W 04:54:59 70° WSW
USA 234 4.4 04:49:53 10° ENE 04:55:52 37° SE 05:00:48 15° SSW
ADEOS Rocket 3.6 04:49:33 10° N 04:56:06 43° WNW 04:57:25 39° W
Cosmos 2279 Rocket 4.4 04:56:22 40° W 04:56:53 41° WNW 05:02:46 10° N
Thor Agena Rocket 3.5 04:52:05 10° SSE 04:57:17 88° ENE 05:02:28 10° NNW
Sich 1 Rocket 3.5 04:52:59 10° NNW 04:57:27 64° W 04:57:27 64° W
Cosmos 1023 Rocket 4.4 04:52:57 10° NNW 04:58:13 82° WSW 05:03:29 10° SSE
ADEOS II 2.0 04:54:21 10° NNE 04:59:40 88° WNW 05:02:39 27° SSW
Cosmos 921 Rocket 2.9 05:00:21 63° WNW 05:00:25 63° WNW 05:04:41 10° NNE
Cosmos 1782 Rocket 3.5 04:56:01 10° N 05:00:32 85° E 05:05:00 10° SSE
Cosmos 1745 Rocket 4.3 05:01:23 10° N 05:07:34 69° ENE 05:13:41 10° SSE
Cosmos 1741 Rocket 4.0 05:02:44 10° NNW 05:08:00 81° ENE 05:13:16 10° SSE
Okean-O 3.2 05:04:49 10° NNE 05:09:13 57° ESE 05:13:35 10° S
Cosmos 2263 Rocket 4.5 05:06:43 10° NNW 05:10:16 17° NNE 05:13:48 10° NE
Cosmos 2297 Rocket 3.2 05:07:38 10° NNW 05:13:06 45° NE 05:18:30 10° ESE
Meteor 1-31 Rocket 3.3 05:09:42 10° NNE 05:13:37 60° ESE 05:17:27 10° S
PAYLOAD B 4.2 05:08:25 10° NNE 05:13:55 66° WNW 05:17:02 26° SW
Cosmos 676 Rocket 4.3 05:11:11 10° NW 05:16:10 43° WSW 05:21:10 10° S
SKYMED 2 3.7 05:15:39 10° SSE 05:19:59 76° ENE 05:24:21 10° NNW
Meteor 1-25 Rocket 4.2 05:14:49 10° NNW 05:20:40 88° W 05:26:32 10° S
Meteor 1-26 Rocket 4.3 05:15:18 10° S 05:20:58 80° E 05:26:34 10° NNE
Resurs 1-4 Rocket 3.7 05:17:34 10° N 05:21:06 18° NW 05:21:10 18° NW
CZ-2D R/B 3.7 05:19:24 10° N 05:22:59 19° NW 05:23:10 18° NW
CZ-4B DEB 4.2 05:17:31 10° NNE 05:22:59 62° WNW 05:26:40 21° SW
Meteor PRIRODA 3.5 05:20:25 10° NNE 05:24:06 80° WNW 05:25:55 28° SSW
Cosmos 1455 4.5 05:25:56 13° NNW 05:25:56 13° NNW 05:26:41 10° NNW
Okean 2 Rocket 2.9 05:22:09 10° NNW 05:26:33 74° W 05:30:55 10° S
Cosmos 2219 3.2 05:22:22 10° NW 05:27:58 58° WSW 05:33:30 10° SSE
Cosmos 1140 Rocket 3.6 05:23:55 10° NW 05:28:58 51° WSW 05:34:01 10° S
Cosmos 1862 Rocket 4.1 05:32:39 34° W 05:33:16 36° WNW 05:37:18 10° N
Cosmos 2227 Rocket 2.5 05:27:39 10° NNW 05:33:21 69° NE 05:39:01 10° SE
MOS 1 Rocket 4.2 05:28:33 10° N 05:33:32 37° WNW 05:35:33 27° WSW
Cosmos 614 Rocket 3.9 05:30:28 10° NNW 05:35:27 56° WSW 05:40:27 10° S
Cosmos 2369 Rocket 2.5 05:34:31 27° WSW 05:37:20 50° NW 05:42:51 10° NNE
Cosmos 2278 Rocket 4.1 05:34:40 12° NW 05:37:38 17° NNW 05:41:20 10° NNE
RUBIN 8/PSLV 4.5 05:35:47 10° NNE 05:40:11 72° WNW 05:44:32 10° SSW
Cosmos 1656 Rocket 4.1 05:34:48 10° SSW 05:40:25 64° ESE 05:46:03 10° NE
Cosmos 2084 Rocket 4.4 05:39:19 23° NW 05:40:38 29° NNW 05:44:00 10° NE
Cosmos 1703 Rocket 3.5 05:37:32 10° SSW 05:41:52 65° WNW 05:46:16 10° N
Meteor 1-11 Rocket 4.4 05:36:18 10° N 05:42:16 61° ENE 05:48:07 10° SSE
SL-08 R/B 4.5 05:37:05 10° NNW 05:43:19 64° W 05:49:34 10° S
CZ-4C R/B 3.1 05:38:24 10° SSW 05:43:39 50° SE 05:49:40 10° NE
Cosmos 2151 Rocket 3.6 05:41:23 10° NNW 05:45:56 89° NE 05:50:27 10° S
Cosmos 1867 3.8 05:43:02 25° WSW 05:46:07 54° NNW 05:51:31 10° NE
ERS-2 2.7 05:44:39 10° N 05:48:09 39° WNW 05:49:39 26° WSW
Okean O Rocket 2.6 05:45:25 10° N 05:49:03 26° WNW 05:50:03 24° W
Feng Yun 1-1 Rocket 4.3 05:43:13 10° NNE 05:49:04 80° WNW 05:55:00 10° SSW
Cosmos 1633 3.1 05:47:45 10° N 05:51:23 60° ENE 05:54:58 10° SSE
CZ-4B R/B 3.8 05:49:19 10° N 05:53:11 60° WNW 05:57:12 10° SSW
Cosmos 972 4.5 05:48:35 10° SW 05:53:32 65° WNW 05:59:00 10° NNE
Lacrosse 4 Rocket 3.6 05:53:25 11° NW 05:55:25 14° NNW 05:57:41 10° NNE
Cosmos 1850 Rocket 4.3 05:53:31 10° NW 05:58:38 46° WSW 06:03:40 10° S
Cosmos 1536 4.2 05:54:54 10° N 05:58:44 42° ENE 06:02:34 10° SE
Cosmos 1933 4.5 05:59:24 22° W 06:00:29 24° WNW 06:03:53 10° N
S3M 4.0 05:57:28 10° SSW 06:03:48 76° WNW 06:10:06 10° N
Cosmos 2056 Rocket 4.0 06:00:45 17° WSW 06:04:18 39° NW 06:09:15 10° NNE
Lacrosse 5 rocket 1.6 06:04:07 22° W 06:06:00 39° SW 06:09:23 10° SE
COSMO-SKYMED 1 2.9 06:04:02 10° S 06:08:10 41° W 06:12:19 10° NNW
CZ-3B DEB -1.2 06:08:37 63° S 06:08:37 63° S 06:10:03 10° ESE
Ariane Rocket 3.8 06:04:11 10° NNE 06:09:14 57° ESE 06:14:14 10° S
Meteor 2-10 Rocket 3.7 06:05:30 10° SW 06:10:21 47° WNW 06:15:20 10° N
SL-24 R/B - RUBIN 2 4.3 06:04:01 10° NW 06:10:26 74° SW 06:16:07 10° SE
CZ-4B R/B 4.5 06:07:58 10° NNW 06:10:40 17° NW 06:11:38 16° WNW
Cosmos 1553 Rocket 4.0 06:04:48 10° SSW 06:11:00 67° WNW 06:17:21 10° N
Meteor 1-28 Rocket 3.5 06:09:43 10° S 06:13:18 44° W 06:16:57 10° NNW
ATLAS 5 CENTAUR R/B 2.1 06:09:15 15° WSW 06:13:27 64° NNW 06:18:58 10° NE
NOAA 6 4.0 06:08:21 10° NNE 06:13:32 70° WNW 06:18:38 10° SSW
IDEFIX/ARIANE 42P 4.2 06:08:50 10° NNE 06:13:45 39° E 06:18:37 10° SSE
Cosmos 2221 Rocket 4.0 06:10:53 10° SW 06:15:14 42° WNW 06:19:36 10° N
Abrixas 4.1 06:15:07 13° SW 06:16:57 23° S 06:19:20 10° SE
CZ-4B R/B 4.1 06:12:54 10° N 06:17:38 29° NW 06:22:23 10° WSW
Cosmos 1420 Rocket 3.9 06:14:30 10° SSW 06:19:42 81° WNW 06:24:57 10° NNE
Meteor 2-11 Rocket 4.5 06:13:53 10° SSW 06:20:01 86° WNW 06:26:13 10° NNE
Cosmos 1943 Rocket 2.5 06:14:49 11° WSW 06:20:02 46° NW 06:25:25 10° NNE
Lacrosse 5 2.0 06:16:53 11° WSW 06:21:52 80° SSE 06:26:58 10° ENE
Helios 1B rocket 3.8 06:19:44 10° SE 06:23:39 43° ENE 06:27:36 10° N
Radarsat Rocket 4.4 06:18:38 10° NNE 06:26:19 81° WNW 06:33:00 10° SSW
Cosmos 1486 Rocket 4.1 06:21:10 10° NNW 06:26:30 86° ENE 06:31:44 10° SSE
Meteor 1-27 Rocket 4.2 06:22:51 10° S 06:28:38 70° E 06:34:33 10° NNE
Cosmos 1602 3.8 06:24:49 10° NNW 06:28:45 61° W 06:32:39 10° S
Okean 1-7 3.6 06:26:15 10° SW 06:30:10 34° WNW 06:34:06 10° N
Cosmos 1782 2.9 06:26:36 10° SSW 06:30:30 55° WNW 06:34:28 10° N
CSL-04 Rocket 4.0 06:27:16 10° NNE 06:32:40 75° ESE 06:38:05 10° S
Cosmos 2082 3.8 06:28:07 10° NW 06:33:43 60° WSW 06:39:15 10° SSE
Cosmos 1709 Rocket 4.0 06:28:24 10° NNW 06:34:28 65° W 06:40:30 10° S
Cosmos 2074 Rocket 4.5 06:28:35 10° N 06:34:54 68° ENE 06:41:10 10° SSE
Cosmos 1606 2.8 06:33:35 10° SSW 06:37:25 58° WNW 06:41:19 10° N
Cosmos 2184 Rocket 4.4 06:32:15 10° N 06:38:26 69° ENE 06:44:35 10° SSE
ADEOS II 3.4 06:34:55 10° N 06:38:46 21° NW 06:42:35 10° W
USA 234 3.4 06:32:56 10° ENE 06:39:29 80° SSE 06:46:03 10° WSW
Cosmos 1503 Rocket 4.5 06:38:20 10° NNW 06:43:42 69° ENE 06:49:04 10° SE
Okean-O 3.7 06:41:49 10° N 06:45:26 25° WNW 06:49:02 10° WSW
Cosmos 1452 Rocket 4.0 06:40:34 10° WSW 06:45:33 41° NW 06:50:35 10° NNE
Cosmos 1300 Rocket 3.8 06:42:40 10° NNW 06:46:57 47° W 06:51:12 10° SSW
Meteor 1-31 Rocket 4.2 06:44:53 10° NNW 06:47:44 20° WNW 06:50:34 10° WSW
SMAP 4.0 06:45:34 10° NNE 06:50:11 56° E 06:54:45 10° S
Cosmos 1975 Rocket 4.4 06:48:12 10° SSE 06:52:23 46° E 06:56:35 10° NNE
Cosmos 1455 Rocket 4.4 06:48:17 10° N 06:52:26 43° ENE 06:56:34 10° SE
Cosmos 1110 Rocket 4.4 06:47:25 10° SSW 06:52:33 69° ESE 06:57:43 10° NNE
Cosmos 1346 Rocket 4.2 06:51:09 10° S 06:55:03 46° E 06:58:56 10° NNE
Cosmos 2315 Rocket 4.1 06:49:32 10° SSW 06:55:55 78° WNW 07:02:18 10° N
Cosmos 2263 Rocket 3.7 06:50:58 10° NNW 06:56:02 32° NE 07:01:02 10° E
Cosmos 2297 Rocket 2.5 06:51:49 10° NW 06:57:14 47° WSW 07:02:36 10° S
